Wind_Speed
20 21 22 23 24 25 26 27 29 29 29 29 30 30 31 32 32 32 32 33 33 33 33 33 33 34 34 34 34 34 35 35 36 37 38 38 39 39
20 21 22 24 25 25 27 28 29 30 30 30 30 30 31 31 31 32 32 32 32 32 32 33 33 33 34 35 35 35 35 35 36 38 38 38 39 39
20 21 22 24 25 25 27 28 29 29 29 29 29 30 30 30 30 31 31 30 30 31 31 33 33 34 34 35 35 35 36 37 37 38 39 39 39 40
20 21 22 23 24 25 27 27 28 28 28 28 28 29 29 29 30 31 31 30 30 30 30 31 32 33 34 34 35 36 36 36 37 39 40 41 41 41
20 21 21 22 23 25 26 27 27 27 27 27 27 28 28 29 30 30 30 30 30 30 30 31 32 32 32 33 34 34 35 36 37 38 39 40 41 41
19 20 21 22 22 23 25 26 26 26 26 26 26 27 27 28 28 28 28 28 28 29 29 29 30 30 30 31 31 33 34 35 36 37 38 39 40 41
19 20 21 21 22 23 24 25 25 25 24 25 25 25 26 27 27 26 26 27 28 28 27 27 28 28 29 30 31 32 33 35 37 38 39 40 41 42
20 20 21 21 22 23 24 24 25 24 24 25 25 25 26 26 25 26 27 27 27 28 27 27 27 28 28 29 31 32 33 34 36 37 38 39 41 42
19 19 20 21 22 22 23 24 24 25 25 25 25 25 25 25 26 26 27 27 26 26 27 27 27 28 29 30 30 31 32 33 35 36 37 38 39 41
18 19 20 21 21 22 23 24 24 25 25 25 25 25 25 25 26 26 26 26 26 26 26 27 27 27 28 28 29 30 31 32 33 34 35 37 39 40
19 20 20 21 22 22 24 24 24 24 24 25 25 25 25 25 25 25 26 26 25 25 25 26 26 26 26 26 27 28 29 30 31 31 32 33 35 36
20 21 21 21 22 23 24 24 23 23 24 25 26 26 25 25 25 25 25 25 25 24 24 24 24 24 24 24 25 26 27 28 29 30 31 32 33 34
21 21 21 22 22 23 24 23 23 24 24 25 26 25 25 25 24 24 24 24 24 23 23 23 23 23 23 22 22 23 24 26 27 28 29 30 31 32
21 21 21 21 22 23 24 24 24 24 24 25 25 25 24 23 23 23 24 24 23 23 23 23 22 22 22 22 21 22 22 24 25 26 27 28 29 30
19 20 21 22 21 22 23 23 23 24 24 24 24 24 24 23 23 23 23 24 23 23 23 22 22 22 22 22 22 22 22 23 24 25 26 27 27 28
19 20 21 22 22 22 23 23 23 24 24 24 23 23 24 24 24 24 24 23 23 23 22 23 23 24 24 24 23 23 22 22 23 24 25 26 27 28
20 20 21 22 22 22 23 23 23 24 24 24 24 24 24 24 24 24 24 23 23 23 23 24 24 25 25 24 23 22 22 22 22 23 24 24 24 25
20 20 21 22 22 23 23 23 22 23 24 24 24 25 24 24 23 23 24 24 24 24 25 25 25 24 24 23 23 22 21 21 22 22 22 21 21 21
21 21 22 22 23 23 23 23 24 23 23 24 24 24 24 24 23 23 24 24 24 25 25 25 26 25 24 23 22 22 21 20 21 21 21 21 20 20
21 21 22 22 23 24 24 24 24 24 24 24 24 24 24 24 24 24 24 24 24 25 25 26 26 26 25 23 22 21 20 20 20 19 19 19 19 18
21 22 23 23 23 24 25 24 24 24 24 24 23 23 24 24 24 24 24 24 24 25 25 26 26 25 25 23 21 20 18 18 18 17 16 16 16 16
22 22 23 23 23 25 25 24 24 24 24 23 23 23 23 23 24 24 25 25 25 25 25 25 25 24 23 22 21 20 18 17 16 16 15 15 15 14
22 22 23 24 24 24 24 24 25 24 24 23 23 23 23 23 23 24 25 25 25 25 25 24 24 23 23 22 22 21 19 17 16 15 14 14 14 13
Wind_Direction
289 291 293 293 293 294 295 296 296 295 294 293 291 290 289 288 286 286 285 284 281 279 276 274 272 271 269 266 264 261 258 256 255 254 252 251 251 250
292 294 295 297 296 296 297 298 298 297 296 295 292 292 291 291 291 290 287 284 282 280 277 274 272 270 269 266 264 262 259 258 256 255 254 253 252 251
292 295 297 299 299 298 298 300 300 299 298 295 293 292 292 291 292 293 290 286 283 281 279 276 272 270 269 267 264 262 260 258 257 256 255 253 252 251
292 296 299 301 301 301 302 302 302 302 301 297 294 293 292 291 292 292 290 289 286 284 282 279 275 271 269 267 265 262 260 259 258 257 256 254 254 253
297 299 302 305 304 305 307 306 305 304 302 299 297 296 295 295 294 294 291 290 287 286 284 281 277 274 270 267 266 263 262 260 259 257 255 255 254 253
305 306 307 308 307 309 310 310 308 306 304 303 302 300 298 298 298 297 293 292 291 290 286 282 279 276 272 269 267 264 263 261 259 258 257 255 254 254
310 311 311 311 313 314 314 314 312 310 309 309 308 306 304 303 301 300 298 295 294 293 289 285 281 278 276 273 268 266 263 262 261 260 258 257 256 254
312 313 314 315 316 318 320 319 317 315 314 312 312 310 308 307 305 303 301 299 298 294 290 287 283 280 278 275 272 269 266 265 264 262 259 259 258 256
315 316 315 317 319 321 323 321 319 317 317 317 316 314 312 310 308 306 305 304 303 298 293 290 286 283 280 278 275 272 270 268 266 264 263 261 260 258
320 319 317 318 319 321 322 322 321 320 321 322 320 318 317 315 311 310 309 308 306 303 299 296 292 286 283 281 277 274 271 269 268 266 266 263 260 258
324 322 320 320 320 319 320 322 324 324 323 324 323 321 319 318 316 314 313 311 309 306 303 300 297 293 287 283 280 277 273 270 269 268 266 266 263 261
324 323 321 320 321 322 323 323 323 323 323 323 323 323 321 320 321 321 319 317 314 311 307 304 301 297 293 289 285 280 276 272 271 271 270 269 267 265
327 326 325 324 324 325 324 323 323 324 324 324 325 325 324 323 322 323 322 321 319 317 312 308 305 302 299 296 290 285 280 277 276 275 273 270 269 268
328 327 326 325 325 325 325 325 325 325 327 327 328 328 328 327 326 325 325 326 324 322 319 315 311 308 305 302 296 290 286 282 279 277 276 274 272 271
332 331 330 328 327 326 326 328 327 326 327 328 330 331 331 329 327 327 327 328 328 326 323 319 316 312 308 304 299 295 290 287 284 281 278 277 276 274
333 333 332 332 329 330 331 330 329 329 329 330 331 332 332 332 331 330 330 330 330 328 325 322 319 315 311 307 302 297 293 290 288 286 283 281 279 276
333 335 334 333 333 333 334 333 331 331 331 330 330 332 332 333 333 334 333 332 330 328 326 325 322 319 315 311 306 301 296 292 292 291 288 286 284 281
334 334 335 335 336 336 335 335 334 333 333 332 332 332 333 333 334 335 335 333 333 332 330 328 327 324 320 316 312 307 302 298 295 293 292 290 288 286
337 336 336 337 338 338 337 336 335 333 334 335 336 335 334 333 333 333 333 333 333 333 333 331 330 329 326 321 317 314 311 306 300 296 293 292 291 289
336 337 338 338 338 338 338 338 336 335 334 334 335 337 337 335 334 335 335 334 334 334 334 333 333 333 331 328 323 319 316 312 306 301 298 296 295 292
335 336 336 336 338 339 340 340 339 338 337 335 336 337 336 336 336 336 336 337 336 336 335 336 337 337 336 333 330 326 323 319 315 308 303 301 300 296
336 336 336 336 336 338 338 339 339 338 339 338 339 340 340 340 340 340 340 339 339 339 339 340 341 341 341 341 339 335 331 327 323 317 314 310 306 303
337 337 337 339 339 339 340 340 340 340 339 340 341 341 342 341 342 343 343 342 341 340 342 344 345 344 344 343 342 341 338 334 332 330 326 320 316 312
Height
5775 5774 5773 5771 5769 5767 5765 5762 5760 5758 5756 5753 5750 5747 5745 5743 5741 5739 5737 5735 5734 5732 5731 5730 5730 5730 5730 5730 5731 5732 5733 5734 5736 5738 5741 5743 5746 5748
5770 5769 5767 5765 5762 5760 5758 5755 5752 5749 5747 5744 5741 5738 5735 5733 5730 5729 5727 5725 5723 5721 5720 5720 5719 5719 5719 5720 5720 5721 5722 5724 5725 5728 5730 5732 5735 5738
5765 5763 5761 5759 5756 5754 5751 5748 5744 5741 5738 5735 5732 5729 5727 5724 5721 5719 5716 5714 5712 5711 5710 5709 5708 5708 5708 5708 5709 5710 5711 5713 5714 5716 5718 5721 5723 5726
5759 5758 5756 5753 5750 5747 5744 5740 5737 5733 5730 5727 5724 5721 5718 5715 5712 5710 5707 5704 5702 5701 5699 5698 5697 5697 5697 5697 5697 5698 5700 5701 5703 5705 5707 5710 5712 5714
5754 5752 5750 5747 5744 5741 5737 5733 5729 5726 5722 5718 5715 5712 5710 5707 5703 5700 5698 5695 5693 5691 5689 5687 5686 5686 5686 5686 5686 5687 5688 5690 5691 5693 5694 5697 5699 5702
5749 5747 5744 5741 5738 5734 5731 5727 5723 5718 5714 5710 5707 5705 5701 5698 5695 5692 5689 5686 5684 5681 5679 5677 5676 5675 5675 5675 5676 5676 5677 5677 5679 5681 5682 5684 5687 5689
5744 5741 5739 5735 5732 5728 5724 5720 5716 5712 5708 5704 5700 5697 5694 5690 5687 5683 5680 5678 5675 5672 5670 5668 5666 5666 5665 5664 5664 5665 5665 5666 5667 5669 5670 5672 5674 5676
5740 5737 5733 5730 5727 5723 5718 5714 5710 5705 5702 5698 5694 5690 5687 5683 5679 5675 5672 5670 5667 5664 5661 5659 5657 5656 5655 5655 5654 5654 5654 5655 5655 5656 5658 5659 5661 5663
5735 5732 5729 5725 5722 5718 5714 5709 5704 5700 5696 5692 5688 5684 5680 5676 5672 5668 5664 5661 5658 5654 5652 5650 5648 5646 5645 5644 5643 5643 5643 5643 5644 5644 5645 5647 5648 5650
5731 5727 5724 5721 5717 5713 5709 5704 5700 5695 5691 5686 5682 5678 5673 5669 5665 5661 5657 5653 5650 5646 5643 5641 5639 5637 5636 5634 5633 5632 5632 5632 5632 5633 5633 5634 5635 5636
5726 5723 5719 5716 5712 5708 5704 5700 5695 5691 5686 5681 5676 5672 5667 5663 5658 5654 5650 5646 5643 5639 5635 5633 5631 5629 5627 5626 5624 5623 5622 5622 5622 5622 5622 5623 5623 5624
5722 5718 5715 5711 5707 5703 5699 5695 5690 5686 5681 5676 5672 5667 5662 5657 5652 5648 5643 5639 5635 5632 5628 5625 5623 5621 5619 5617 5615 5614 5612 5612 5612 5612 5612 5612 5612 5613
5718 5714 5710 5707 5703 5699 5694 5690 5686 5681 5676 5671 5666 5661 5656 5652 5647 5643 5638 5634 5629 5626 5622 5619 5616 5613 5611 5609 5607 5605 5604 5603 5602 5602 5601 5601 5601 5601
5714 5711 5707 5703 5699 5694 5690 5686 5681 5676 5672 5667 5661 5656 5652 5647 5642 5638 5633 5629 5624 5620 5617 5613 5610 5607 5604 5602 5600 5598 5596 5595 5594 5593 5592 5592 5591 5591
5710 5707 5703 5699 5694 5690 5686 5681 5677 5672 5667 5662 5657 5652 5648 5643 5638 5634 5629 5625 5620 5616 5611 5608 5604 5601 5598 5595 5593 5591 5589 5587 5585 5584 5583 5582 5581 5581
5707 5703 5699 5695 5691 5686 5682 5677 5672 5668 5663 5658 5654 5649 5644 5639 5634 5630 5625 5621 5617 5612 5608 5603 5599 5596 5592 5589 5586 5584 5581 5580 5578 5576 5575 5574 5572 5571
5704 5700 5696 5692 5688 5683 5678 5674 5669 5664 5659 5655 5650 5645 5640 5635 5631 5626 5621 5617 5612 5608 5604 5599 5595 5590 5586 5582 5579 5576 5574 5572 5570 5568 5566 5565 5564 5562
5702 5698 5694 5689 5685 5680 5675 5670 5665 5661 5656 5651 5646 5641 5637 5632 5627 5623 5618 5613 5608 5604 5599 5595 5590 5585 5581 5577 5573 5569 5567 5565 5563 5561 5559 5557 5556 5555
5699 5695 5691 5686 5681 5677 5672 5667 5662 5657 5652 5647 5643 5638 5633 5628 5624 5619 5615 5610 5605 5600 5595 5590 5585 5580 5576 5572 5568 5564 5560 5558 5555 5553 5552 5550 5548 5547
5696 5692 5687 5683 5678 5673 5669 5664 5658 5653 5649 5644 5639 5634 5630 5625 5621 5616 5611 5606 5601 5596 5591 5586 5581 5575 5570 5566 5562 5559 5555 5551 5549 5547 5545 5543 5542 5541
5693 5688 5684 5679 5675 5670 5665 5660 5655 5650 5645 5640 5636 5631 5627 5622 5617 5613 5608 5603 5598 5593 5588 5583 5577 5571 5566 5562 5558 5554 5551 5547 5544 5541 5539 5538 5536 5535
5689 5685 5680 5676 5672 5667 5662 5657 5652 5647 5642 5637 5632 5628 5624 5619 5615 5610 5605 5600 5595 5590 5584 5579 5574 5569 5564 5559 5555 5551 5547 5544 5540 5537 5535 5533 5531 5530
5686 5682 5677 5673 5668 5664 5659 5655 5650 5644 5639 5634 5630 5626 5621 5617 5612 5607 5602 5597 5592 5587 5581 5576 5571 5566 5561 5557 5552 5548 5544 5541 5538 5535 5533 5530 5528 5526